Weather Service Report


040 
ASUS41 KCLE 261812
RWRCLE
OHIO REGIONAL WEATHER ROUNDUP
NATIONAL WEATHER SERVICE WILMINGTON, OH
200 PM EDT WED APR 26 2017

NOTE: "FAIR" INDICATES FEW OR NO CLOUDS BELOW 12,000 FEET WITH NO
SIGNIFICANT WEATHER AND/OR OBSTRUCTIONS TO VISIBILITY.

OHZ001>008-015>018-024>027-034-035-043-044-261900-
   NORTHWEST OHIO
  
CITY           SKY/WX    TMP DP  RH WIND       PRES   REMARKS
DEFIANCE       FAIR      78  53  41 S18G29    29.56F                  
FINDLAY        FAIR      81  54  39 S23G30    29.58F                  
TOLEDO EXPRESS FAIR      80  55  42 S16G23    29.56F                  
TOLEDO EXEC    FAIR      80  57  45 SE22G31   29.58F                  
LIMA           FAIR      80  53  39 S25G31    29.59F                  
$$
 
OHZ009>014-019>023-028>033-038-089-261900-
   NORTHEAST OHIO
  
CITY           SKY/WX    TMP DP  RH WIND       PRES   REMARKS
CLE-HOPKINS    PTSUNNY   77  56  48 S16G22    29.68F                  
CLE-LAKEFRONT  FAIR      76  56  49 SE15G21   29.65F                  
CUY CO. ARPT   PTSUNNY   75  57  53 S14       29.69F                  
LORAIN-ELYRIA  FAIR      76  56  49 S17G25    29.66F                  
ASHTABULA      FAIR      73  55  53 S10G18    29.71F                  
AKRON-CANTON   FAIR      76  57  51 S8G18     29.71F                  
WOOSTER        FAIR      74  58  57 S10       29.71F                  
MANSFIELD      FAIR      76  55  48 SE21G26   29.68F                  
YOUNGSTOWN     PTSUNNY   75  55  49 S13       29.71F                  
$$
 
OHZ042-051>053-060>062-070>072-077>081-261900-
  SOUTHWEST OHIO
  
CITY           SKY/WX    TMP DP  RH WIND       PRES   REMARKS
CINC-COVINGTON FAIR      78  61  55 S20G26    29.65F                  
CINC-LUNKEN    FAIR      79  63  57 S13G23    29.65F                  
HAMILTON       FAIR      81  60  48 S8G20     29.64F                  
DAYTON         PTSUNNY   78  56  46 S21G29    29.63F                  
WRIGHT-PAT AFB FAIR      81  55  41 SE18G25   29.63F                  
DAYTON GENERAL FAIR      78  57  48 S20       29.64F                  
WILMINGTON     FAIR      77  58  51 S17G26    29.66F                  
$$

OHZ036-037-039>041-045>050-054>059-063>069-073>076-082>088-261900-
  CENTRAL AND SOUTHEAST OHIO
  
CITY           SKY/WX    TMP DP  RH WIND       PRES   REMARKS
COLUMBUS       CLOUDY    79  57  46 S13G22    29.67F                  
OSU AIRPORT    FAIR      79  58  48 S13G21    29.66F                  
BOLTON FIELD   SUNNY     79  55  44 S16G23    29.67F                  
RICKENBACK AFB FAIR      78  55  45 SE14      29.67F                  
NEWARK         FAIR      78  55  44 S10G17    29.69F                  
MARION         FAIR      79  55  43 S18G31    29.65F                  
LANCASTER      FAIR      80  58  46 S9        29.69F                  
ZANESVILLE     FAIR      77  56  48 S8        29.71F                  
NEW PHILLY     FAIR      77  58  51 S9G17     29.71F                  
$$
  

Return to Home page


Western Regional Climate Center, wrcc@dri.edu